| time (UTC) | temp F | wind direction | speed MPH | gust MPH | rain 1hr in | rain 24hr in | rain mn in | humidity % | barometer mb |
| 20260504000035 | 60 | 198 | 2.0 | 6.0 | 0.00 | 0.00 | 0.00 | 64 | 1010.5 |
| 20260503235533 | 60 | 246 | 3.0 | 3.0 | 0.00 | 0.00 | 0.00 | 63 | 1010.6 |
| 20260503235029 | 60 | 246 | 2.0 | 5.0 | 0.00 | 0.00 | 0.00 | 63 | 1010.7 |
| 20260503234527 | 60 | 250 | 3.0 | 5.0 | 0.00 | 0.00 | 0.00 | 63 | 1010.7 |
| 20260503234026 | 60 | 262 | 2.0 | 3.0 | 0.00 | 0.00 | 0.00 | 62 | 1010.7 |
| 20260503233521 | 60 | 260 | 2.0 | 3.0 | 0.00 | 0.00 | 0.00 | 61 | 1010.5 |
| 20260503233017 | 60 | 284 | 2.0 | 3.0 | 0.00 | 0.00 | 0.00 | 61 | 1010.8 |
| 20260503232514 | 60 | 237 | 1.0 | 2.0 | 0.00 | 0.00 | 0.00 | 60 | 1010.8 |
| 20260503232011 | 60 | 236 | 2.0 | 7.0 | 0.00 | 0.00 | 0.00 | 60 | 1010.6 |
| 20260503231509 | 60 | 255 | 3.0 | 6.0 | 0.00 | 0.00 | 0.00 | 60 | 1010.7 |
| 20260503231006 | 60 | 304 | 3.0 | 6.0 | 0.00 | 0.00 | 0.00 | 61 | 1010.7 |
| 20260503230457 | 60 | 290 | 4.0 | 7.0 | 0.00 | 0.00 | 0.00 | 61 | 1010.7 |
| 20260503225954 | 60 | 259 | 3.0 | 5.0 | 0.00 | 0.00 | 0.00 | 62 | 1010.6 |
| 20260503225451 | 60 | 327 | 4.0 | 5.0 | 0.00 | 0.00 | 0.00 | 63 | 1010.4 |
| 20260503224947 | 60 | 353 | 1.0 | 5.0 | 0.00 | 0.00 | 0.00 | 63 | 1010.7 |
| 20260503224444 | 61 | 284 | 2.0 | 5.0 | 0.00 | 0.00 | 0.00 | 63 | 1010.9 |
| 20260503223942 | 61 | 343 | 1.0 | 3.0 | 0.00 | 0.00 | 0.00 | 63 | 1010.9 |
| 20260503223439 | 61 | 286 | 3.0 | 5.0 | 0.00 | 0.00 | 0.00 | 63 | 1011.0 |
| 20260503222934 | 61 | 281 | 3.0 | 6.0 | 0.00 | 0.00 | 0.00 | 63 | 1011.1 |
| 20260503222434 | 62 | 344 | 3.0 | 5.0 | 0.00 | 0.00 | 0.00 | 63 | 1011.0 |
| 20260503221931 | 62 | 257 | 5.0 | 8.0 | 0.00 | 0.00 | 0.00 | 63 | 1011.3 |
| 20260503221429 | 62 | 293 | 3.0 | 8.0 | 0.00 | 0.00 | 0.00 | 64 | 1011.2 |
| 20260503220926 | 62 | 283 | 3.0 | 9.0 | 0.00 | 0.00 | 0.00 | 64 | 1011.3 |
| 20260503220422 | 62 | 279 | 4.0 | 6.0 | 0.00 | 0.00 | 0.00 | 64 | 1011.2 |
| 20260503215919 | 62 | 254 | 6.0 | 13.0 | 0.00 | 0.00 | 0.00 | 64 | 1011.1 |
| 20260503215416 | 62 | 255 | 5.0 | 9.0 | 0.00 | 0.00 | 0.00 | 65 | 1011.1 |
| 20260503214914 | 62 | 303 | 5.0 | 8.0 | 0.00 | 0.00 | 0.00 | 66 | 1011.1 |
| 20260503214411 | 62 | 270 | 4.0 | 6.0 | 0.00 | 0.00 | 0.00 | 66 | 1011.2 |
| 20260503213909 | 62 | 273 | 5.0 | 8.0 | 0.00 | 0.00 | 0.00 | 66 | 1011.2 |
| 20260503213406 | 62 | 233 | 10.0 | 11.0 | 0.00 | 0.00 | 0.00 | 66 | 1011.3 |
| 20260503212903 | 62 | 302 | 8.0 | 14.0 | 0.00 | 0.00 | 0.00 | 67 | 1011.2 |
| 20260503212400 | 62 | 351 | 5.0 | 9.0 | 0.00 | 0.00 | 0.00 | 68 | 1011.2 |
| 20260503211857 | 62 | 272 | 6.0 | 8.0 | 0.00 | 0.00 | 0.00 | 69 | 1011.2 |
| 20260503211354 | 62 | 255 | 4.0 | 8.0 | 0.00 | 0.00 | 0.00 | 70 | 1011.2 |
| 20260503210849 | 63 | 329 | 6.0 | 9.0 | 0.00 | 0.00 | 0.00 | 71 | 1011.2 |
| 20260503210347 | 63 | 281 | 5.0 | 7.0 | 0.00 | 0.00 | 0.00 | 72 | 1011.1 |
| 20260503205842 | 63 | 300 | 4.0 | 9.0 | 0.00 | 0.00 | 0.00 | 72 | 1011.2 |
| 20260503205339 | 63 | 323 | 6.0 | 9.0 | 0.00 | 0.00 | 0.00 | 72 | 1011.0 |
| 20260503204835 | 63 | 246 | 4.0 | 13.0 | 0.00 | 0.00 | 0.00 | 72 | 1011.2 |
| 20260503204332 | 63 | 249 | 9.0 | 11.0 | 0.00 | 0.00 | 0.00 | 71 | 1011.2 |
| 20260503203829 | 63 | 248 | 6.0 | 8.0 | 0.00 | 0.00 | 0.00 | 70 | 1011.3 |
| 20260503203327 | 63 | 283 | 4.0 | 10.0 | 0.00 | 0.00 | 0.00 | 70 | 1011.1 |
| 20260503202823 | 63 | 282 | 5.0 | 8.0 | 0.00 | 0.00 | 0.00 | 69 | 1011.2 |
| 20260503202322 | 63 | 310 | 3.0 | 8.0 | 0.00 | 0.00 | 0.00 | 69 | 1011.1 |
| 20260503201820 | 63 | 353 | 2.0 | 5.0 | 0.00 | 0.00 | 0.00 | 69 | 1011.0 |
| 20260503201316 | 63 | 302 | 5.0 | 8.0 | 0.00 | 0.00 | 0.00 | 70 | 1011.2 |
| 20260503200814 | 63 | 315 | 5.0 | 7.0 | 0.00 | 0.00 | 0.00 | 70 | 1011.3 |
| 20260503200310 | 62 | 276 | 3.0 | 6.0 | 0.00 | 0.00 | 0.00 | 69 | 1011.1 |
| 20260503195807 | 62 | 335 | 3.0 | 3.0 | 0.00 | 0.00 | 0.00 | 69 | 1011.1 |
| 20260503195304 | 62 | 295 | 3.0 | 6.0 | 0.00 | 0.00 | 0.00 | 69 | 1011.1 |
| 20260503194801 | 62 | 336 | 5.0 | 6.0 | 0.00 | 0.00 | 0.00 | 69 | 1011.2 |
| 20260503194256 | 62 | 237 | 3.0 | 5.0 | 0.00 | 0.00 | 0.00 | 69 | 1011.1 |
| 20260503193753 | 62 | 296 | 4.0 | 6.0 | 0.00 | 0.00 | 0.00 | 69 | 1011.0 |
| 20260503193249 | 62 | 307 | 3.0 | 5.0 | 0.00 | 0.00 | 0.00 | 69 | 1011.1 |
| 20260503192745 | 62 | 251 | 4.0 | 6.0 | 0.00 | 0.00 | 0.00 | 69 | 1011.0 |
| 20260503192240 | 63 | 286 | 4.0 | 5.0 | 0.00 | 0.00 | 0.00 | 69 | 1011.0 |
| 20260503191737 | 63 | 308 | 4.0 | 8.0 | 0.00 | 0.00 | 0.00 | 69 | 1011.1 |
| 20260503191234 | 63 | 344 | 4.0 | 8.0 | 0.00 | 0.00 | 0.00 | 69 | 1011.0 |
| 20260503190731 | 63 | 254 | 6.0 | 8.0 | 0.00 | 0.00 | 0.00 | 69 | 1011.2 |
| 20260503190228 | 63 | 287 | 10.0 | 17.0 | 0.00 | 0.00 | 0.00 | 69 | 1011.0 |
| 20260503185725 | 64 | 315 | 7.0 | 11.0 | 0.00 | 0.00 | 0.00 | 69 | 1011.0 |
| 20260503185221 | 63 | 286 | 10.0 | 11.0 | 0.00 | 0.00 | 0.00 | 69 | 1010.9 |
| 20260503184715 | 64 | 289 | 6.0 | 7.0 | 0.00 | 0.00 | 0.00 | 69 | 1011.0 |
| 20260503184212 | 63 | 279 | 5.0 | 8.0 | 0.00 | 0.00 | 0.00 | 69 | 1010.9 |
| 20260503183709 | 64 | 331 | 3.0 | 7.0 | 0.00 | 0.00 | 0.00 | 69 | 1010.9 |
| 20260503183206 | 64 | 342 | 6.0 | 10.0 | 0.00 | 0.00 | 0.00 | 69 | 1010.7 |
| 20260503182704 | 64 | 293 | 3.0 | 8.0 | 0.00 | 0.00 | 0.00 | 69 | 1010.7 |
| 20260503182203 | 64 | 337 | 9.0 | 11.0 | 0.00 | 0.00 | 0.00 | 69 | 1010.5 |
| 20260503181658 | 64 | 352 | 6.0 | 9.0 | 0.00 | 0.00 | 0.00 | 70 | 1010.6 |
| 20260503181155 | 64 | 356 | 6.0 | 7.0 | 0.00 | 0.00 | 0.00 | 70 | 1010.4 |
| 20260503180652 | 64 | 269 | 3.0 | 5.0 | 0.00 | 0.00 | 0.00 | 70 | 1010.2 |
| 20260503180151 | 64 | 321 | 9.0 | 11.0 | 0.00 | 0.00 | 0.00 | 70 | 1010.1 |
| 20260503175647 | 64 | 277 | 7.0 | 10.0 | 0.00 | 0.00 | 0.00 | 71 | 1010.2 |
| 20260503175144 | 64 | 281 | 7.0 | 11.0 | 0.00 | 0.00 | 0.00 | 72 | 1010.1 |
| 20260503174640 | 64 | 305 | 9.0 | 11.0 | 0.00 | 0.00 | 0.00 | 72 | 1009.9 |
| 20260503174138 | 64 | 312 | 9.0 | 10.0 | 0.00 | 0.00 | 0.00 | 73 | 1009.7 |
| 20260503173633 | 64 | 337 | 9.0 | 14.0 | 0.00 | 0.00 | 0.00 | 73 | 1009.5 |
| 20260503173130 | 64 | 260 | 7.0 | 15.0 | 0.00 | 0.00 | 0.00 | 74 | 1009.3 |
| 20260503172626 | 64 | 15 | 7.0 | 15.0 | 0.00 | 0.00 | 0.00 | 74 | 1009.5 |
| 20260503172124 | 64 | 334 | 10.0 | 13.0 | 0.00 | 0.00 | 0.00 | 75 | 1009.3 |
| 20260503171620 | 64 | 295 | 7.0 | 16.0 | 0.00 | 0.00 | 0.00 | 76 | 1009.2 |
| 20260503171117 | 64 | 271 | 9.0 | 11.0 | 0.00 | 0.00 | 0.00 | 77 | 1009.5 |
| 20260503170615 | 64 | 272 | 7.0 | 13.0 | 0.00 | 0.00 | 0.00 | 78 | 1009.0 |
| 20260503170111 | 64 | 337 | 7.0 | 9.0 | 0.00 | 0.00 | 0.00 | 79 | 1009.0 |
| 20260503151006 | 65 | 315 | 11.0 | 14.0 | 0.00 | 0.00 | 0.00 | 81 | 1008.2 |
| 20260503150503 | 65 | 48 | 7.0 | 15.0 | 0.00 | 0.00 | 0.00 | 81 | 1008.1 |
| 20260503131350 | 71 | 293 | 9.0 | 18.0 | 0.00 | 0.00 | 0.00 | 70 | 1006.9 |
| 20260503130847 | 70 | 306 | 11.0 | 15.0 | 0.00 | 0.00 | 0.00 | 71 | 1007.0 |
| 20260503130344 | 71 | 349 | 9.0 | 14.0 | 0.00 | 0.00 | 0.00 | 69 | 1006.7 |
| 20260503110739 | 72 | 238 | 14.0 | 26.0 | 0.00 | 0.00 | 0.00 | 68 | 1006.1 |
| 20260503110236 | 72 | 293 | 10.0 | 20.0 | 0.00 | 0.00 | 0.00 | 69 | 1006.0 |
| 20260503100202 | 74 | 249 | 14.0 | 18.0 | 0.00 | 0.00 | 0.00 | 64 | 1005.1 |
| 20260503090121 | 75 | 250 | 12.0 | 16.0 | 0.00 | 0.00 | 0.00 | 65 | 1004.2 |
| 20260503081556 | 75 | 263 | 11.0 | 18.0 | 0.00 | 0.00 | 0.00 | 70 | 1003.6 |
| 20260503081053 | 75 | 235 | 8.0 | 21.0 | 0.00 | 0.00 | 0.00 | 70 | 1003.8 |
| 20260503080549 | 75 | 271 | 10.0 | 20.0 | 0.00 | 0.00 | 0.00 | 70 | 1003.6 |
| 20260503072523 | 75 | 229 | 13.0 | 16.0 | 0.00 | 0.00 | 0.00 | 64 | 1003.0 |
| 20260503072020 | 75 | 251 | 11.0 | 16.0 | 0.00 | 0.00 | 0.00 | 63 | 1003.1 |
| 20260503071512 | 75 | 241 | 7.0 | 17.0 | 0.00 | 0.00 | 0.00 | 64 | 1002.7 |
| 20260503071009 | 75 | 252 | 7.0 | 16.0 | 0.00 | 0.00 | 0.00 | 64 | 1002.7 |
| 20260503070505 | 74 | 239 | 9.0 | 15.0 | 0.00 | 0.00 | 0.00 | 65 | 1002.6 |
| 20260503054928 | 72 | 223 | 6.0 | 9.0 | 0.00 | 0.00 | 0.00 | 68 | 1001.8 |
| 20260503054424 | 71 | 242 | 10.0 | 13.0 | 0.00 | 0.00 | 0.00 | 69 | 1001.9 |
| 20260503053922 | 71 | 252 | 11.0 | 15.0 | 0.00 | 0.00 | 0.00 | 69 | 1001.8 |
| 20260503053420 | 71 | 237 | 9.0 | 10.0 | 0.00 | 0.00 | 0.00 | 70 | 1001.9 |
| 20260503052916 | 70 | 183 | 3.0 | 13.0 | 0.00 | 0.00 | 0.00 | 71 | 1001.8 |
| 20260503052414 | 70 | 245 | 5.0 | 11.0 | 0.00 | 0.00 | 0.00 | 72 | 1001.8 |
| 20260503051910 | 69 | 222 | 7.0 | 14.0 | 0.00 | 0.00 | 0.00 | 72 | 1001.6 |
| 20260503051407 | 69 | 234 | 5.0 | 14.0 | 0.00 | 0.00 | 0.00 | 72 | 1001.7 |
| 20260503050904 | 69 | 226 | 7.0 | 13.0 | 0.00 | 0.00 | 0.00 | 72 | 1001.4 |
| 20260503050359 | 69 | 217 | 9.0 | 11.0 | 0.00 | 0.00 | 0.00 | 71 | 1001.6 |
| 20260503045857 | 69 | 241 | 10.0 | 11.0 | 0.00 | 0.00 | 0.00 | 70 | 1001.5 |
| 20260503045354 | 69 | 240 | 8.0 | 13.0 | 0.00 | 0.00 | 0.00 | 70 | 1001.4 |
| 20260503044851 | 68 | 212 | 4.0 | 13.0 | 0.00 | 0.00 | 0.00 | 69 | 1001.4 |
| 20260503044348 | 68 | 247 | 8.0 | 9.0 | 0.00 | 0.00 | 0.00 | 69 | 1001.3 |
| 20260503043845 | 68 | 223 | 7.0 | 10.0 | 0.00 | 0.00 | 0.00 | 69 | 1001.4 |
| 20260503043342 | 68 | 198 | 7.0 | 10.0 | 0.00 | 0.00 | 0.00 | 69 | 1001.2 |
| 20260503042838 | 67 | 264 | 5.0 | 10.0 | 0.00 | 0.00 | 0.00 | 70 | 1001.5 |
| 20260503042335 | 67 | 229 | 7.0 | 9.0 | 0.00 | 0.00 | 0.00 | 70 | 1001.2 |
| 20260503041831 | 67 | 212 | 6.0 | 10.0 | 0.00 | 0.00 | 0.00 | 70 | 1001.2 |
| 20260503041329 | 67 | 230 | 2.0 | 8.0 | 0.00 | 0.00 | 0.00 | 70 | 1001.3 |
| 20260503040826 | 66 | 290 | 2.0 | 7.0 | 0.00 | 0.00 | 0.00 | 70 | 1001.1 |
| 20260503040324 | 66 | 248 | 3.0 | 7.0 | 0.00 | 0.00 | 0.00 | 71 | 1001.1 |
| 20260503035821 | 64 | 233 | 3.0 | 5.0 | 0.00 | 0.00 | 0.00 | 74 | 1001.2 |
| 20260503035317 | 64 | 79 | 0.0 | 1.0 | 0.00 | 0.00 | 0.00 | 74 | 1000.9 |
| 20260503034815 | 63 | 29 | 0.0 | 0.0 | 0.00 | 0.00 | 0.00 | 75 | 1000.8 |
| 20260503034312 | 63 | 29 | 0.0 | 0.0 | 0.00 | 0.00 | 0.00 | 75 | 1000.9 |
| 20260503033809 | 63 | 29 | 0.0 | 0.0 | 0.00 | 0.00 | 0.00 | 75 | 1000.8 |
| 20260503033306 | 63 | 29 | 0.0 | 1.0 | 0.00 | 0.00 | 0.00 | 75 | 1000.8 |
| 20260503032805 | 63 | 29 | 0.0 | 0.0 | 0.00 | 0.00 | 0.00 | 75 | 1000.6 |
| 20260503032304 | 63 | 50 | 1.0 | 1.0 | 0.00 | 0.00 | 0.00 | 75 | 1000.4 |
| 20260503031800 | 63 | 168 | 1.0 | 3.0 | 0.00 | 0.00 | 0.00 | 75 | 1000.5 |
| 20260503031258 | 63 | 213 | 0.0 | 1.0 | 0.00 | 0.00 | 0.00 | 75 | 1000.5 |
| 20260503030754 | 63 | 352 | 0.0 | 0.0 | 0.00 | 0.00 | 0.00 | 74 | 1000.6 |
| 20260503030250 | 63 | 214 | 2.0 | 3.0 | 0.00 | 0.00 | 0.00 | 74 | 1000.5 |
| 20260503025747 | 63 | 193 | 2.0 | 3.0 | 0.00 | 0.00 | 0.00 | 76 | 1000.5 |
| 20260503025245 | 63 | 284 | 2.0 | 5.0 | 0.00 | 0.00 | 0.00 | 76 | 1000.4 |
| 20260503024741 | 63 | 108 | 1.0 | 1.0 | 0.00 | 0.00 | 0.00 | 76 | 1000.1 |
| 20260503024238 | 63 | 89 | 0.0 | 1.0 | 0.00 | 0.00 | 0.00 | 76 | 1000.0 |
| 20260503023735 | 63 | 120 | 1.0 | 2.0 | 0.00 | 0.00 | 0.00 | 76 | 1000.0 |
| 20260503023232 | 63 | 49 | 0.0 | 1.0 | 0.00 | 0.00 | 0.00 | 77 | 999.9 |
| 20260503022728 | 63 | 53 | 0.0 | 1.0 | 0.00 | 0.00 | 0.00 | 77 | 999.8 |
| 20260503022228 | 64 | 91 | 0.0 | 0.0 | 0.00 | 0.00 | 0.00 | 76 | 1000.0 |
| 20260503021725 | 63 | 122 | 0.0 | 1.0 | 0.00 | 0.00 | 0.00 | 76 | 1000.0 |
| 20260503021221 | 64 | 82 | 0.0 | 1.0 | 0.00 | 0.00 | 0.00 | 76 | 999.9 |
| 20260503020719 | 64 | 38 | 0.0 | 1.0 | 0.00 | 0.00 | 0.00 | 76 | 1000.1 |
| 20260503020216 | 64 | 29 | 1.0 | 2.0 | 0.00 | 0.00 | 0.00 | 76 | 1000.2 |
| 20260503015713 | 65 | 17 | 0.0 | 0.0 | 0.00 | 0.00 | 0.00 | 76 | 1000.5 |
| 20260503015210 | 65 | 79 | 0.0 | 1.0 | 0.00 | 0.00 | 0.00 | 76 | 1000.7 |
| 20260503014706 | 66 | 65 | 0.0 | 1.0 | 0.00 | 0.00 | 0.00 | 75 | 1000.8 |
| 20260503014204 | 64 | 88 | 1.0 | 1.0 | 0.00 | 0.00 | 0.00 | 75 | 1000.8 |
| 20260503013700 | 66 | 17 | 1.0 | 1.0 | 0.00 | 0.00 | 0.00 | 73 | 1000.9 |
| 20260503013158 | 67 | 145 | 1.0 | 3.0 | 0.00 | 0.00 | 0.00 | 73 | 1000.9 |
| 20260503012655 | 66 | 147 | 1.0 | 1.0 | 0.00 | 0.00 | 0.00 | 72 | 1001.1 |
| 20260503012152 | 66 | 181 | 2.0 | 2.0 | 0.00 | 0.00 | 0.00 | 71 | 1001.4 |
| 20260503011648 | 66 | 238 | 2.0 | 2.0 | 0.00 | 0.00 | 0.00 | 69 | 1001.4 |
| 20260503011145 | 66 | 145 | 0.0 | 0.0 | 0.00 | 0.00 | 0.00 | 69 | 1001.4 |
| 20260503010641 | 66 | 200 | 2.0 | 3.0 | 0.00 | 0.00 | 0.00 | 69 | 1001.7 |
| 20260503010140 | 66 | 210 | 3.0 | 3.0 | 0.00 | 0.00 | 0.00 | 68 | 1001.5 |
| 20260503005637 | 66 | 275 | 2.0 | 3.0 | 0.00 | 0.00 | 0.00 | 67 | 1001.4 |
| 20260503005134 | 66 | 213 | 2.0 | 3.0 | 0.00 | 0.00 | 0.00 | 66 | 1001.4 |
| 20260503004630 | 66 | 212 | 2.0 | 3.0 | 0.00 | 0.00 | 0.00 | 66 | 1001.3 |
| 20260503004129 | 66 | 245 | 2.0 | 2.0 | 0.00 | 0.00 | 0.00 | 65 | 1001.5 |
| 20260503003625 | 66 | 197 | 0.0 | 0.0 | 0.00 | 0.00 | 0.00 | 64 | 1001.2 |
| 20260503003122 | 66 | 269 | 1.0 | 5.0 | 0.00 | 0.00 | 0.00 | 63 | 1001.4 |
| 20260503002619 | 67 | 308 | 3.0 | 3.0 | 0.00 | 0.00 | 0.00 | 62 | 1001.1 |
| 20260503002116 | 67 | 25 | 0.0 | 1.0 | 0.00 | 0.00 | 0.00 | 60 | 1000.7 |
| 20260503001612 | 69 | 67 | 1.0 | 2.0 | 0.00 | 0.00 | 0.00 | 57 | 1000.7 |
| 20260503001109 | 69 | 120 | 0.0 | 1.0 | 0.00 | 0.00 | 0.00 | 52 | 1000.8 |
| 20260503000607 | 69 | 148 | 1.0 | 2.0 | 0.00 | 0.00 | 0.00 | 51 | 1000.7 |